Regional Weather Roundup
Issued by NWS

Home | Current Version | Previous Version | Text Only | Print | Product List | Glossary Off
Versions: 1 2 3 4 5 6 7 8 9 10 11 12 13 14 15 16 17 18 19 20 21 22 23 24 25 26 27 28 29 30 31 32 33 34 35 36 37 38 39 40 41 42 43 44 45 46 47 48 49 50

000
ASUS43 KFSD 151902
RWRSD

WEATHER ROUNDUP FOR SOUTH DAKOTA
NATIONAL WEATHER SERVICE SIOUX FALLS SD
200 PM CDT TUE APR 15 2014

NOTE: "FAIR" INDICATES FEW OR NO CLOUDS BELOW 12,000 FEET WITH NO
SIGNIFICANT WEATHER AND/OR OBSTRUCTIONS TO VISIBILITY.


SDZ001>005-009-010-012>017-152000-
NORTHWEST AND NORTH CENTRAL SOUTH DAKOTA

CITY           SKY/WX    TMP DP  RH WIND       PRES   REMARKS
BUFFALO          N/A     61  20  20 S9G17     29.54F
MOBRIDGE       CLOUDY    47  19  33 SE25G32   29.75F
$$

SDZ012>016-024>037-041>051-057-063-072>074-152000-
SOUTHWEST AND SOUTH CENTRAL SOUTH DAKOTA

CITY           SKY/WX    TMP DP  RH WIND       PRES   REMARKS
RAPID CTY ARPT MOSUNNY   62  21  20 SE8       29.66F
PIERRE         MOSUNNY   53  21  28 SE25G33   29.73F
CUSTER         PTSUNNY   52  15  23 W15G23    29.71F
ELLSWORTH AFB  SUNNY     61  19  20 E8        29.65F
PHILIP         MOSUNNY   60  25  26 S14       29.68F
PINE RIDGE     PTSUNNY   57  25  29 W16G23    29.73F
WINNER         FAIR      59  22  24 S22       29.76F
$$

SDZ004>011-016>023-039-040-152000-
NORTHEAST SOUTH DAKOTA

CITY           SKY/WX    TMP DP  RH WIND       PRES   REMARKS
ABERDEEN       PTSUNNY   40  14  34 SE21G29   29.92F
WATERTOWN      CLOUDY    36  12  37 SE14      29.95F
SISSETON         N/A     34  15  46 S14       30.00F WCI  25
$$

SDZ017-020-022-023-036>040-048>070-152000-
SOUTHEAST SOUTH DAKOTA

CITY           SKY/WX    TMP DP  RH WIND       PRES   REMARKS
SIOUX FALLS    PTSUNNY   42  15  33 S18       30.00F
HURON          MOSUNNY   44  15  31 S21G31    29.91F
CHAMBERLAIN      N/A     53  20  27 S23G32    29.81F
MITCHELL       PTSUNNY   46  20  35 S24G30    29.93F
YANKTON        SUNNY     45  18  33 SE22G29   29.99F
$$

ABBREVIATIONS USED IN REMARKS
   TC - TEMPERATURE IN CELSIUS
  WCI - WIND CHILL INDEX
   HX - HEAT INDEX
  VSB - VISIBILITY




USA.gov is the U.S. government's official web portal to all federal, state and local government web resources and services.